This is the latest recevied weather packets stored in our database for station/object W7TRD. If no packets are shown the sender has not sent any weather packets the latest 10 day(s).
| Time | Temp. | Humidity | Pressure | Rain* | Wind** | Luminosity | Snow |
|---|---|---|---|---|---|---|---|
| 1788625906 | 15.56° C | 86% | 1018.8 hPa | 0 mm | - | 146 W/m² | - |
| 1788625601 | 14.44° C | 91% | 1018.5 hPa | 0 mm | - | 183 W/m² | - |
| 1788625301 | 14.44° C | 90% | 1018.6 hPa | 0 mm | - | 107 W/m² | - |
| 1788625001 | 14.44° C | 90% | 1018.7 hPa | 0 mm | - | 168 W/m² | - |
| 1788624699 | 14.44° C | 90% | 1018.8 hPa | 0 mm | - | 195 W/m² | - |
| 1788624393 | 14.44° C | 91% | 1018.8 hPa | 0 mm | - | 208 W/m² | - |
| 1788624092 | 13.89° C | 93% | 1018.7 hPa | 0 mm | - | 228 W/m² | - |
| 1788623787 | 13.89° C | 93% | 1018.7 hPa | 0 mm | - | 143 W/m² | - |
| 1788623486 | 13.89° C | 93% | 1018.7 hPa | 0 mm | - | 82 W/m² | - |
| 1788623186 | 13.89° C | 93% | 1019 hPa | 0 mm | - | 91 W/m² | - |
| 1788622881 | 13.89° C | 93% | 1018.9 hPa | 0 mm | - | 123 W/m² | - |
| 1788622577 | 13.89° C | 93% | 1018.7 hPa | 0 mm | - | 195 W/m² | - |
| 1788622272 | 13.33° C | 94% | 1018.8 hPa | 0 mm | - | 131 W/m² | - |
| 1788621967 | 13.33° C | 95% | 1018.8 hPa | 0 mm | - | 74 W/m² | - |
| 1788621661 | 13.33° C | 95% | 1018.7 hPa | 0 mm | - | 69 W/m² | - |
| 1788621357 | 13.33° C | 95% | 1019 hPa | 0 mm | - | 66 W/m² | - |
| 1788621052 | 13.33° C | 96% | 1018.7 hPa | 0 mm | - | 87 W/m² | - |
| 1788620747 | 12.78° C | 96% | 1018.8 hPa | 0 mm | - | 73 W/m² | - |
| 1788620445 | 12.78° C | 96% | 1018.8 hPa | 0 mm | - | 62 W/m² | - |
| 1788620139 | 12.78° C | 95% | 1018.7 hPa | 0 mm | - | 45 W/m² | - |
| 1788619838 | 12.78° C | 96% | 1018.5 hPa | 0 mm | - | 37 W/m² | - |
| 1788619533 | 12.78° C | 96% | 1018.7 hPa | 0 mm | - | 37 W/m² | - |
| 1788619232 | 12.78° C | 96% | 1018.6 hPa | 0 mm | - | 46 W/m² | - |
| 1788618931 | 12.22° C | 97% | 1018.9 hPa | 0 mm | - | 43 W/m² | - |
| 1788618627 | 12.22° C | 97% | 1018.7 hPa | 0 mm | - | 28 W/m² | - |
* Rain latest hour (hover to see other rain measurements)
** Current wind speed in m/s (hover to see current wind gust speed)